User: anonymous   Login
Location: PFO Observatory
(45.2937°N, 66.0991°W)
Time: 15:39:55
(UTC-03:00)
Language:

Cosmos 1151 Rocket - Orbit

View from above orbital plane
View from above orbital plane
View from above satellite
View from above satellite

Ground track
Ground track

The orbit data is extracted from the following two-line orbital elements,

1 11672U 80005B   16273.17105455  .00000193  00000-0  18319-4 0  9996
2 11672  82.5162 325.7306 0018338 102.7267 257.6002 14.87815770984581
Epoch (UTC): 29 September 2016 04:06:19
Eccentricity: 0.0018338
inclination: 82.5162°
perigee height: 592 km
apogee height: 617 km
right ascension of ascending node: 325.7306°
argument of perigee: 102.7267°
revolutions per day: 14.87815770
mean anomaly at epoch: 257.6002°
orbit number at epoch: 98458

The dashed part of the orbit path shows where the satellite is in the earth's shadow,  

DLR